Terminal Aerodrome Forecast
Issued by NWS Norman, OK

Home | Current Version | Previous Version | Text Only | Print | Product List | Glossary On
Versions: 1 2 3 4 5 6 7 8 9 10 11 12 13 14 15 16 17 18 19 20 21 22 23 24
000
FTUS44 KOUN 260527
TAFSPS
TAF
KSPS 260527Z 2606/2706 17015KT P6SM BKN230
     FM261200 15011KT P6SM BKN180
     FM261700 19011KT P6SM BKN025
     FM270300 36013KT P6SM OVC025=

USA.gov is the U.S. government's official web portal to all federal, state and local government web resources and services.